AirNav   ProFlight Series 2 Aviation Headset
 
 501 users online  

PN23 University of Pittsburgh Medical Center Mercy Heliport
Pittsburgh, Pennsylvania, USA

GOING TO PITTSBURGH?


FAA INFORMATION EFFECTIVE 16 JULY 2020

Location

FAA Identifier: PN23
Lat/Long: 40-26-08.7100N 079-59-04.9400W
40-26.145167N 079-59.082333W
40.4357528,-79.9847056
(estimated)
Elevation: 886 ft. / 270 m (estimated)
Variation: 08W (1990)
Time zone: UTC -4 (UTC -5 during Standard Time)
Zip code: 15219

Heliport Operations

Heliport use: Private use. Permission required prior to landing
Activation date: 03/1994
Control tower: no
ARTCC: CLEVELAND CENTER
FSS: ALTOONA FLIGHT SERVICE STATION
Attendance: CONTINUOUS
Wind indicator: lighted
Segmented circle: no

Heliport Communications

WX AWOS-A at 42PN (1.5 nm NW): PHONE 412-442-2213
WX ASOS at AGC (6 nm SE): 120.55 (412-466-8968)
WX ASOS at PIT (12 nm W): PHONE 412-472-0145
WX AWOS-3 at FWQ (15 nm SE): 118.475 (724-379-5815)

Nearby radio navigation aids

VOR radial/distance  VOR name  Freq  Var
AGCr024/9.8ALLEGHENY VOR/DME110.0009W
EWCr164/25.5ELLWOOD CITY VOR/DME115.8008W
HLGr075/28.7WHEELING VOR/DME112.2007W
IHDr320/39.9INDIAN HEAD VORTAC108.2006W

Heliport Services

Runway Information

Helipad H1

Dimensions: 65 x 65 ft. / 20 x 20 m
Surface: concrete
Latitude: 40-26.145167N
Longitude: 079-59.082333W
Elevation: 886.0 ft.
Traffic pattern: leftleft

Heliport Ownership and Management from official FAA records

Ownership: Privately-owned
Owner: UPMC MERCY
1400 LOCUST STREET, STE 1215
PITTSBURGH, PA 15219
Phone 412-232-8111
Manager: ANN CURTIS
1400 LOCUST STREET, STE 1051
PITTSBURGH, PA 15219
Phone (412) 232-8370

Additional Remarks

A52-H1 HAS 127 FT BLDG 44 FT N & 13 FT BLDG 148 FT E.
FOR CD CTC PITTSBURGH APCH AT 412-472-5591

Instrument Procedures

There are no published instrument procedures at PN23.

Some nearby airports with instrument procedures:

KAGC - Allegheny County Airport (6 nm SE)
G05 - Finleyville Airpark (11 nm S)
KPIT - Pittsburgh International Airport (12 nm W)
KFWQ - Rostraver Airport (15 nm SE)
KBTP - Pittsburgh/Butler Regional Airport (21 nm N)
 
Loc | Ops | Rwys | IFR | FBO | Links
Com | Nav | Svcs | Stats | Notes
Area around PN23 (University of Pittsburgh Medical Center Mercy Heliport)
 
Road maps at: MapQuest Bing Google
 
Aerial photo
No photo
 
Sectional chart

 
Airport distance calculator
Flying to University of Pittsburgh Medical Center Mercy Heliport? Find the distance to fly.

From to PN23

Sunrise and sunset
Times for 13-Aug-2020
 Local
(UTC-4)
 Zulu
(UTC)
Morning civil twilight06:0110:01
Sunrise06:3110:31
Sunset20:1800:18
Evening civil twilight20:4800:48

Current date and time
Zulu (UTC)  13-Aug-2020 06:05:20
Local (UTC-4)  13-Aug-2020 02:05:20
 
METAR
KAGC 
6nm SE 
130553Z 00000KT 10SM CLR 23/15 A3007 RMK AO2 SLP174 T02330150 10272 20233 58005
KPIT 
13nm W 
130551Z 02005KT 10SM BKN220 23/15 A3007 RMK AO2 SLP180 T02280150 10267 20228 58005
KP53 
15nm SE 
130556Z AUTO 00000KT 20/17 A3011 RMK AO1 SLP195 T02000167 10217 20200 53004
KBTP 
20nm N 
130556Z AUTO 04004KT 10SM CLR 20/15 A3010 RMK AO2 SLP189 T02000150 10250 20189 56004
TAF
KAGC 
6nm SE 
130520Z 1306/1406 03004KT P6SM BKN250 FM131800 08005KT P6SM SCT090
KPIT 
13nm W 
130520Z 1306/1412 03005KT P6SM BKN250 FM131800 08005KT P6SM SCT090 FM140600 07003KT P6SM SCT150
NOTAMs
Click for the latest NOTAMs
NOTAMs are issued by the DoD/FAA and will open in a separate window not controlled by AirNav.

 

 
 

Would you like to see your business listed on this page?

 If your business provides an interesting product or service to pilots, flight crews, aircraft, or users of the University of Pittsburgh Medical Center Mercy Heliport, you should consider listing it here.  To start the listing process, click on the button below
 
Add a business
 

Other Pages about University of Pittsburgh Medical Center Mercy Heliport

Update a link
 
Copyright © AirNav, LLC. All rights reserved. Privacy Policy  Contact